Weather Roundup
Issued by NWS Springfield, MO

Home | Current Version | Previous Version | Text Only | Print | Product List | Glossary On
Versions: 1 2 3 4 5 6 7 8 9 10 11 12 13 14 15 16 17 18 19 20 21 22 23 24 25 26 27 28 29 30 31 32 33 34 35 36 37 38 39 40 41 42 43 44 45 46 47 48 49 50
000
NZUS99 KSGF 030907
HRRSGF

HOURLY WEATHER
NATIONAL WEATHER SERVICE SPRINGFIELD MO
400 AM CDT TUE MAY 03 2016

......SGF CWA......

CITY           SKY/WX    TMP DP  RH WIND       PRES   REMARKS
SPRINGFIELD    CLOUDY    47  44  90 CALM      30.05S
JOPLIN         PTCLDY    40  40 100 CALM      30.08R FOG
WEST PLAINS    CLOUDY    50  45  83 NW6       30.03S
ROLLA          CLOUDY    48  47  96 NW5       30.02S
OSAGE BEACH    CLOUDY    45  36  70 CALM      30.05S VSB 1/4

......SURROUNDING SGF CWA......

CITY           SKY/WX    TMP DP  RH WIND       PRES   REMARKS
CHANUTE        FOG       40  38  93 CALM      30.07S VSB 1/4
PARSONS        PTCLDY    40  39  97 CALM      30.08S FOG
COFFEYVILLE    CLEAR     42  40  92 CALM      30.08R FOG
EMPORIA        PTCLDY    43  42  97 S6        30.06S
GROVE OK       FOG       43  43 100 CALM      30.08S VSB 1/2
ROGERS AR      FOG       43  43 100 CALM      30.07S VSB 3/4
SILOAM SPRINGS CLEAR     41  34  75 CALM      30.07F
HARRISON AR    CLOUDY    49  46  90 NW5       30.05R
NEAR YELLVILLE CLOUDY   N/A N/A N/A NW5       30.02R

......KANSAS AND MISSOURI......

CITY           SKY/WX    TMP DP  RH WIND       PRES   REMARKS
KANSAS CTY INT PTCLDY    45  42  89 W6        30.06S
DOWNTOWN KC    PTCLDY    46  44  93 CALM      30.06S
COLUMBIA       FOG       42  42 100 CALM      30.04S VSB 1/4
SEDALIA        CLEAR     45  44  97 W5        30.06S
ST JOSEPH      FOG       42  41  96 CALM      30.07S VSB 1/4
ST LOUIS       CLOUDY    53  49  86 W5        30.01S
SPIRIT OF STL  CLOUDY    52  50  93 CALM      30.01S
KIRKSVILLE     CLEAR     40  38  93 NW5       30.05S
WICHITA        PTCLDY    43  39  86 S3        30.06S
TOPEKA         CLEAR     42  40  92 CALM      30.07S
OLATHE         CLEAR     46  42  86 W5        30.06S

......TENNESSEE......

CITY           SKY/WX    TMP DP  RH WIND       PRES   REMARKS
MEMPHIS        PTCLDY    57  51  80 N6        29.98R
NASHVILLE      CLOUDY    57  51  80 NW6       29.95S

......ARKANSAS.......

CITY           SKY/WX    TMP DP  RH WIND       PRES   REMARKS
FAYETTEVILLE   FOG       40  40 100 CALM      30.06F VSB 1/4
FT SMITH       PTCLDY    47  43  86 W3        30.06S
LITTLE ROCK    CLOUDY    58  49  72 NW7       30.03R

......OKLAHOMA.......

CITY           SKY/WX    TMP DP  RH WIND       PRES   REMARKS
TULSA          PTCLDY    45  43  93 NW3       30.05F
PONCA CITY     CLEAR     41  39  93 CALM      30.06S
MCALESTER      PTCLDY    43  41  93 CALM      30.08S
OKLAHOMA CITY  PTCLDY    43  40  89 SW5       30.07F

......IOWA............

CITY           SKY/WX    TMP DP  RH WIND       PRES   REMARKS
DES MOINES     PTCLDY    45  40  82 CALM      30.04S
QUAD CITIES    PTCLDY    40  38  93 CALM      30.01R

......ILLINOIS........

CITY           SKY/WX    TMP DP  RH WIND       PRES   REMARKS
QUINCY         CLOUDY    48  46  93 NW6       30.02S
CHICAGO        CLEAR     42  35  76 NW3       29.97S




USA.gov is the U.S. government's official web portal to all federal, state and local government web resources and services.